Terminal Aerodrome Forecast
Issued by NWS

Home | Current Version | Previous Version | Text Only | Print | Product List | Glossary On
Versions: 1 2 3 4 5 6 7 8 9 10 11 12 13 14 15 16 17 18 19
000
FTUS43 KAPX 181100
TAFMBL
TAF
KMBL 181120Z 1812/1912 03005KT P6SM OVC017
     FM181600 04006KT P6SM OVC025
     FM181900 02005KT P6SM SCT030
     FM190100 00000KT P6SM FEW035
      AMD LTD TO CLD VIS AND WIND=

USA.gov is the U.S. government's official web portal to all federal, state and local government web resources and services.